Home   Weather   Kansas City   Past weeks
Flag for USA

Past Weather in Kansas City, Missouri, USA — Yesterday and Last 2 Weeks

Now
63 °F

Clear.


Feels Like: 63 °F
Forecast: 75 / 55 °F
Wind: 10 mph from South

Location: Kansas City Downtown Airport

Current Time: May 22, 2019 at 3:56:44 am

Latest Report: May 22, 2019 at 2:54 am


Visibility: 10 mi

Pressure: 29.52 "Hg

Humidity: 73%

Dew Point: 54 °F

Location of Kansas CityLocation

Past Weather in Kansas City — Graph

°F

Kansas City Temperature Yesterday

Maximum temperature yesterday: 70 °F (at 6:54 pm)
Minimum temperature yesterday: 50 °F (at 12:06 am)
Average temperature yesterday: 56 °F

High & Low Weather Summary for the Past Weeks

 TemperatureHumidityPressure
High90 °F (May 16, 1:54 pm)93% (May 7, 2:18 am)30.21 "Hg (May 7, 2:18 am)
Low42 °F (May 10, 5:54 am)33% (May 16, 4:54 pm)29.40 "Hg (May 21, 3:54 pm)
Average62 °F72%29.84 "Hg
* Reported May 7 2:18 am — May 22 2:54 am, Kansas City. Weather by CustomWeather, © 2019

Note: Actual official high and low records may vary slightly from our data, if they occured in-between our weather recording intervals... More about our weather records

Advertising

Kansas City Weather History for the Previous 24 Hours

Scroll right to see more
 ConditionsComfort  
Time TempWeatherWind HumidityBarometerVisibility
2:54 am
Wed, May 22
63 °FClear.10 mph73%29.52 "Hg10 mi
1:54 am62 °FClear.8 mph75%29.51 "Hg10 mi
12:54 am64 °FClear.12 mph73%29.49 "Hg10 mi
11:54 pm
Tue, May 21
65 °FClear.17 mph70%29.48 "Hg10 mi
10:54 pm65 °FClear.20 mph73%29.46 "Hg10 mi
9:54 pm65 °FClear.16 mph76%29.46 "Hg10 mi
8:54 pm67 °FClear.14 mph73%29.44 "Hg10 mi
7:54 pm68 °FSunny.16 mph70%29.42 "Hg10 mi
6:54 pm70 °FSunny.15 mph68%29.41 "Hg10 mi
5:54 pm69 °FBroken clouds.9 mph70%29.41 "Hg10 mi
4:54 pm65 °FSunny.9 mph85%29.42 "Hg10 mi
4:11 pm63 °FPartly sunny.13 mph87%29.44 "Hg10 mi
3:54 pm61 °FLight rain. Cloudy.14 mph90%29.40 "Hg10 mi
2:54 pm58 °FLow clouds.8 mph90%29.52 "Hg10 mi
1:54 pm55 °FLight rain. Low clouds.13 mph87%29.51 "Hg8 mi
12:54 pm52 °FMostly cloudy.17 mph86%29.49 "Hg10 mi
12:25 pm52 °FLight rain. Mostly cloudy.16 mph86%29.54 "Hg10 mi
11:54 am52 °FLight rain. Overcast.15 mph86%29.62 "Hg10 mi
11:15 am52 °FLight rain. Mostly cloudy.10 mph86%29.66 "Hg10 mi
10:54 am51 °FLight rain. Cloudy.10 mph92%29.68 "Hg8 mi
10:36 am51 °FHeavy rain. Fog.7 mph92%29.71 "Hg1 mi
10:20 am51 °FHeavy rain. Fog.9 mph92%29.74 "Hg1 mi
9:54 am51 °FHeavy rain. Fog.8 mph89%29.70 "Hg1 mi
9:22 am52 °FHeavy rain. Fog.14 mph89%29.66 "Hg3 mi
8:54 am52 °FLight rain. Low clouds.13 mph89%29.66 "Hg10 mi
7:54 am52 °FLight rain. Low clouds.12 mph89%29.70 "Hg8 mi
6:54 am52 °FLight rain. Low clouds.13 mph86%29.67 "Hg10 mi
5:54 am51 °FRain. Low clouds.13 mph89%29.75 "Hg7 mi
5:11 am51 °FLow clouds.18 mph86%29.70 "Hg10 mi
4:54 am51 °FLight rain. Mostly cloudy.20 mph86%29.69 "Hg9 mi
3:54 am52 °FLight rain. Overcast.14 mph83%29.81 "Hg10 mi
3:23 am52 °FLight rain. Overcast.14 mph83%29.81 "Hg10 mi
Weather by CustomWeather, © 2019

See weather overview